N0TOA-13 Weather Reports


time (UTC)temp
C
wind
direction
speed
KPH
gust
KPH
rain 1hr
cm
rain 24hr
cm
rain mn
cm
humidity
%
barometer
mb
20260508105004 5 137 1.6 3.2 0.00 0.00 0.00 82 992.5
20260508104005 5 137 1.6 4.8 0.00 0.00 0.00 82 992.4
20260508103005 5 137 1.6 3.2 0.00 0.00 0.00 76 991.9
20260508103003 5 20 0.0 1.6 0.00 0.00 0.00 90 1017.8
20260508102005 5 137 1.6 3.2 0.00 0.00 0.00 76 991.7
20260508101004 5 313 0.0 3.2 0.00 0.00 0.00 90 1017.7
20260508100004 5 302 0.0 4.8 0.00 0.00 0.00 90 1017.7
20260508095005 6 137 1.6 1.6 0.00 0.00 0.00 76 991.8
20260508094004 6 327 0.0 3.2 0.00 0.00 0.00 89 1017.8
20260508093004 6 333 0.0 1.6 0.00 0.00 0.00 89 1017.8
20260508092005 6 137 1.6 1.6 0.00 0.00 0.00 73 992.1
20260508091005 6 137 1.6 3.2 0.00 0.00 0.00 73 992.1
20260508091003 6 0 0.0 3.2 0.00 0.00 0.00 87 1018.0
20260508090005 6 137 1.6 1.6 0.00 0.00 0.00 73 992.0
20260508085005 6 137 1.6 1.6 0.00 0.00 0.00 73 992.1
20260508084004 7 233 0.0 1.6 0.00 0.00 0.00 85 1018.0
20260508083004 7 16 1.6 3.2 0.00 0.00 0.00 84 1018.2
20260508082004 7 273 0.0 3.2 0.00 0.00 0.00 84 1018.3
20260508081004 7 137 1.6 3.2 0.00 0.00 0.00 65 992.4
20260508080005 7 137 1.6 3.2 0.00 0.00 0.00 65 992.5
20260508075003 8 317 0.0 4.8 0.00 0.00 0.00 79 1018.3
20260508074005 8 137 1.6 3.2 0.00 0.00 0.00 65 992.5
20260508074003 8 310 1.6 3.2 0.00 0.00 0.00 78 1018.3
20260508073005 8 137 1.6 3.2 0.00 0.00 0.00 60 992.4
20260508072005 9 137 1.6 3.2 0.00 0.00 0.00 60 992.3
20260508071005 9 137 1.6 3.2 0.00 0.00 0.00 60 992.3
20260508070005 10 137 1.6 3.2 0.00 0.00 0.00 60 992.3
20260508065005 10 46 0.0 3.2 0.00 0.00 0.00 70 1017.9
20260508064005 10 137 1.6 4.8 0.00 0.00 0.00 60 992.2
20260508064003 10 352 1.6 4.8 0.00 0.00 0.00 68 1018.1
20260508063005 11 137 1.6 3.2 0.00 0.00 0.00 48 992.5
20260508062005 11 137 1.6 4.8 0.00 0.00 0.00 48 992.8
20260508061004 11 339 3.2 4.8 0.00 0.00 0.00 65 1018.4
20260508060005 11 137 1.6 3.2 0.00 0.00 0.00 48 992.0
20260508055004 11 137 1.6 3.2 0.00 0.00 0.00 48 991.8
20260508054004 11 89 0.0 3.2 0.00 0.00 0.00 64 1017.7
20260508053004 11 78 0.0 3.2 0.00 0.00 0.00 64 1017.7
20260508052005 11 137 1.6 4.8 0.00 0.00 0.00 37 991.7
20260508051004 11 73 1.6 4.8 0.00 0.00 0.00 64 1017.6
20260508050005 11 137 1.6 9.7 0.00 0.00 0.00 37 992.1
20260508045005 12 137 1.6 4.8 0.00 0.00 0.00 37 992.2
20260508044004 12 74 3.2 4.8 0.00 0.00 0.00 58 1017.5
20260508043004 12 51 1.6 8.0 0.00 0.00 0.00 58 1017.3
20260508042005 12 137 1.6 9.7 0.00 0.00 0.00 35 991.3
20260508041005 13 137 1.6 11.3 0.00 0.00 0.00 35 991.5
20260508040005 13 137 1.6 9.7 0.00 0.00 0.00 35 991.5
20260508035005 14 137 1.6 3.2 0.00 0.00 0.00 35 991.5
20260508034005 14 137 1.6 3.2 0.00 0.00 0.00 35 991.4
20260508033004 14 345 1.6 3.2 0.00 0.00 0.00 43 1017.2
20260508032004 15 137 1.6 3.2 0.00 0.00 0.00 28 991.3
20260508031005 15 137 1.6 4.8 0.00 0.00 0.00 28 991.1
20260508031003 15 90 0.0 3.2 0.00 0.00 0.00 42 1017.0
20260508030005 15 137 1.6 4.8 0.00 0.00 0.00 28 991.6
20260508025004 15 78 1.6 4.8 0.00 0.00 0.00 41 1017.1
20260508024004 15 137 1.6 8.0 0.00 0.00 0.00 28 991.1
20260508023005 15 137 1.6 8.0 0.00 0.00 0.00 28 990.8
20260508022005 15 137 1.6 8.0 0.00 0.00 0.00 28 990.9
20260508021005 16 137 1.6 14.5 0.00 0.00 0.00 28 991.0
20260508020004 16 336 4.8 14.5 0.00 0.00 0.00 34 1016.6
20260508015004 17 137 1.6 9.7 0.00 0.00 0.00 28 990.5
20260508014004 17 137 1.6 3.2 0.00 0.00 0.00 28 990.2
20260508013005 17 137 1.6 3.2 0.00 0.00 0.00 22 990.0
20260508012004 17 137 1.6 3.2 0.00 0.00 0.00 22 989.9
20260508011003 17 339 1.6 3.2 0.00 0.00 0.00 28 1015.7
20260508010004 18 334 1.6 3.2 0.00 0.00 0.00 28 1015.6
20260508005004 18 1 0.0 1.6 0.00 0.00 0.00 28 1015.6
20260508004005 18 137 1.6 4.8 0.00 0.00 0.00 22 989.8
20260508003005 18 137 1.6 3.2 0.00 0.00 0.00 23 989.8
20260508002004 18 207 1.6 4.8 0.00 0.00 0.00 28 1015.6
20260508001005 19 137 1.6 11.3 0.00 0.00 0.00 23 989.7
20260508000004 20 267 3.2 11.3 0.00 0.00 0.00 26 1015.7
20260507235005 20 137 1.6 8.0 0.00 0.00 0.00 23 989.8
20260507235003 20 176 3.2 8.0 0.00 0.00 0.00 26 1015.7
20260507234004 20 251 1.6 9.7 0.00 0.00 0.00 27 1015.7
20260507233005 20 137 1.6 9.7 0.00 0.00 0.00 24 989.9
20260507232004 20 137 1.6 9.7 0.00 0.00 0.00 24 989.9
20260507231004 20 137 1.6 9.7 0.00 0.00 0.00 24 989.9
20260507230005 20 137 1.6 14.5 0.00 0.00 0.00 24 990.0
20260507224004 20 330 1.6 12.9 0.00 0.00 0.00 27 1015.9
20260507223004 20 298 4.8 12.9 0.00 0.00 0.00 28 1016.0
20260507222004 20 300 1.6 16.1 0.00 0.00 0.00 27 1016.0
20260507221004 20 323 4.8 11.3 0.00 0.00 0.00 27 1016.1
20260507220005 20 137 1.6 19.3 0.00 0.00 0.00 26 990.4
20260507215005 19 137 1.6 14.5 0.00 0.00 0.00 26 990.5
20260507215003 19 347 4.8 14.5 0.00 0.00 0.00 27 1016.4
20260507214004 19 345 4.8 14.5 0.00 0.00 0.00 28 1016.4
20260507213004 18 344 6.4 12.9 0.00 0.00 0.00 28 1016.6
20260507212004 18 137 1.6 19.3 0.00 0.00 0.00 28 990.6
20260507211005 19 137 1.6 19.3 0.00 0.00 0.00 28 990.7
20260507211003 19 349 6.4 19.3 0.00 0.00 0.00 28 1016.6
20260507210005 19 328 4.8 14.5 0.00 0.00 0.00 28 1016.7
20260507205005 18 137 1.6 19.3 0.00 0.00 0.00 28 990.9
20260507204005 18 137 1.6 16.1 0.00 0.00 0.00 28 991.0
20260507204003 18 351 4.8 16.1 0.00 0.00 0.00 29 1016.9
20260507203005 18 137 1.6 16.1 0.00 0.00 0.00 33 991.1
20260507202005 18 137 1.6 14.5 0.00 0.00 0.00 33 991.2
20260507201005 18 137 1.6 12.9 0.00 0.00 0.00 33 991.4
20260507200004 18 137 1.6 12.9 0.00 0.00 0.00 33 991.5
20260507195004 18 306 4.8 11.3 0.00 0.00 0.00 33 1017.5
20260507194003 17 333 4.8 12.9 0.00 0.00 0.00 33 1017.6
20260507193005 17 137 1.6 12.9 0.00 0.00 0.00 38 991.8
20260507192005 17 137 1.6 8.0 0.00 0.00 0.00 38 991.8
20260507191004 17 264 3.2 9.7 0.00 0.00 0.00 33 1017.7
20260507190005 17 137 1.6 11.3 0.00 0.00 0.00 38 992.0
20260507185004 16 249 4.8 12.9 0.00 0.00 0.00 35 1017.8
20260507184004 16 137 1.6 12.9 0.00 0.00 0.00 38 992.0
20260507183004 16 171 4.8 11.3 0.00 0.00 0.00 36 1017.9
20260507182005 16 137 1.6 11.3 0.00 0.00 0.00 40 992.1
20260507181004 16 137 1.6 11.3 0.00 0.00 0.00 40 992.3
20260507180004 15 137 1.6 11.3 0.00 0.00 0.00 40 992.3
20260507175004 15 290 4.8 14.5 0.00 0.00 0.00 37 1018.1
20260507174004 15 137 1.6 12.9 0.00 0.00 0.00 40 992.2
20260507173005 15 137 1.6 12.9 0.00 0.00 0.00 40 992.3
20260507172004 14 195 3.2 12.9 0.00 0.00 0.00 40 1018.3
20260507171004 13 231 3.2 12.9 0.00 0.00 0.00 40 1018.4
20260507170004 13 239 3.2 9.7 0.00 0.00 0.00 41 1018.5
20260507165005 13 137 1.6 11.3 0.00 0.00 0.00 40 992.7
20260507164003 12 271 4.8 11.3 0.00 0.00 0.00 41 1018.7
20260507163004 12 247 3.2 9.7 0.00 0.00 0.00 43 1018.7
20260507162004 12 137 1.6 9.7 0.00 0.00 0.00 41 992.9
20260507161005 12 137 1.6 9.7 0.00 0.00 0.00 41 993.0
20260507160005 11 137 1.6 11.3 0.00 0.00 0.00 41 993.1
20260507155005 11 137 1.6 9.7 0.00 0.00 0.00 41 993.1
20260507154005 10 137 1.6 12.9 0.00 0.00 0.00 41 993.1
20260507153004 10 233 4.8 12.9 0.00 0.00 0.00 46 1019.0
20260507152004 10 227 4.8 14.5 0.00 0.00 0.00 47 1019.0
20260507151004 10 191 4.8 11.3 0.00 0.00 0.00 47 1019.1
20260507150005 9 137 1.6 9.7 0.00 0.00 0.00 41 993.2
20260507145005 8 137 1.6 9.7 0.00 0.00 0.00 41 993.1
20260507145003 8 220 3.2 9.7 0.00 0.00 0.00 48 1019.0
20260507144005 8 137 1.6 9.7 0.00 0.00 0.00 41 993.2
20260507144003 8 252 3.2 9.7 0.00 0.00 0.00 47 1019.1
20260507143004 7 242 3.2 11.3 0.00 0.00 0.00 50 1019.0
20260507142003 7 194 4.8 11.3 0.00 0.00 0.00 51 1019.0
20260507141004 7 213 3.2 12.9 0.00 0.00 0.00 51 1019.0
20260507140005 6 137 1.6 9.7 0.00 0.00 0.00 44 993.1
20260507135004 6 137 1.6 12.9 0.00 0.00 0.00 44 993.1
20260507134004 6 216 3.2 11.3 0.00 0.00 0.00 52 1019.0
20260507133004 5 229 3.2 12.9 0.00 0.00 0.00 52 1019.0
20260507132004 5 137 1.6 12.9 0.00 0.00 0.00 44 993.0
20260507131005 4 137 1.6 11.3 0.00 0.00 0.00 44 993.0
20260507130005 4 137 1.6 8.0 0.00 0.00 0.00 44 992.9
20260507125004 3 137 1.6 9.7 0.00 0.00 0.00 44 992.8
20260507124004 2 184 3.2 9.7 0.00 0.00 0.00 58 1018.7
20260507122005 2 186 3.2 11.3 0.00 0.00 0.00 59 1018.5
20260507121005 2 137 1.6 9.7 0.00 0.00 0.00 42 992.6
20260507121003 2 150 1.6 9.7 0.00 0.00 0.00 59 1018.5
20260507120005 2 137 1.6 8.0 0.00 0.00 0.00 42 992.6
20260507115004 2 193 3.2 9.7 0.00 0.00 0.00 58 1018.5
20260507114004 2 137 1.6 12.9 0.00 0.00 0.00 42 992.6
20260507113005 2 137 1.6 12.9 0.00 0.00 0.00 42 992.4
20260507112004 2 217 3.2 9.7 0.00 0.00 0.00 58 1018.3
20260507111004 2 137 1.6 9.7 0.00 0.00 0.00 42 992.4
20260507110004 2 137 1.6 8.0 0.00 0.00 0.00 42 992.5